Home > Weather > Niamey > Past weeks

Flag for Niger Weather for the Past 2 Weeks in Niamey, Niger

Now
84 °F

Clear.


Feels Like: 81 °F
Forecast: 62 / 92 °F
Wind: 16 mph from Southeast

Location: Niamey-Aero

Current Time: Feb 11, 2016 at 12:55:28 PM

Latest Report: Feb 11, 2016 at 12:00 PM


Visibility: 5 mi

Pressure: 30.01 "Hg

Humidity: 10%

Dew point: 23 °F

Location of NiameyLocation

Historic Weather in Niamey — Graph

°F

Niamey Temperature Yesterday

Maximum temperature yesterday: 90 °F (at 3:00 PM)
Minimum temperature yesterday: 64 °F (at 5:00 AM)
Average temperature yesterday: 76 °F

High & Low Weather Summary for the Past Weeks

 TemperatureHumidityPressure
High91 °F (Feb 4, 4:00 PM)30% (Feb 1, 2:00 PM)30.15 "Hg (Feb 1, 2:00 PM)
Low61 °F (Feb 2, 6:00 AM)6% (Jan 31, 5:00 PM)29.86 "Hg (Feb 2, 4:00 PM)
Average76 °F15%30.01 "Hg
* Reported Jan 27 11:00 AM — Feb 11 11:00 AM, Niamey, Weather by CustomWeather, © 2016

Note: Actual official high and low records may vary slightly from our data, if they occured in-between our weather recording intervals... More about our weather records

Advertising

Niamey Weather History for the Previous 24 Hours

 ConditionsComfort  
Time TempWeatherWind HumidityBarometerVisibility
11:00 AM
Thu, Feb 11
82 °FClear.18 mph11%30.01 "Hg4 mi
10:00 AM77 °FClear.20 mph13%30.04 "Hg4 mi
9:00 AM70 °FClear.13 mph20%30.04 "Hg4 mi
8:00 AM63 °FClear.7 mph25%30.01 "Hg4 mi
7:00 AM63 °FClear.7 mph25%29.98 "Hg5 mi
6:00 AM63 °FClear.8 mph25%29.98 "Hg5 mi
5:00 AM63 °FClear.6 mph25%29.98 "Hg5 mi
4:00 AM66 °FClear.7 mph22%29.98 "Hg5 mi
3:00 AM66 °FClear.6 mph22%29.98 "Hg5 mi
2:00 AM68 °FClear.5 mph21%29.98 "Hg5 mi
1:00 AM68 °FClear.3 mph21%29.98 "Hg5 mi
12:00 AM72 °FClear.7 mph17%29.98 "Hg5 mi
11:00 PM
Wed, Feb 10
73 °FClear.7 mph16%29.98 "Hg5 mi
10:00 PM75 °FClear.6 mph14%29.98 "Hg5 mi
9:00 PM77 °FClear.6 mph13%29.98 "Hg5 mi
8:00 PM81 °FClear.7 mph11%29.95 "Hg5 mi
7:00 PM84 °FClear.10 mph9%29.95 "Hg5 mi
6:00 PM88 °FClear.15 mph8%29.92 "Hg5 mi
5:00 PM90 °FClear.16 mph7%29.92 "Hg5 mi
4:00 PM90 °FClear.15 mph7%29.92 "Hg4 mi
3:00 PM90 °FClear.16 mph7%29.95 "Hg4 mi
2:00 PM88 °FClear.17 mph8%29.98 "Hg4 mi
1:00 PM86 °FClear.15 mph9%30.01 "Hg4 mi
12:00 PM84 °FDuststorm.16 mph10%30.04 "Hg3 mi
Weather by CustomWeather, © 2016

See weather overviewHow to use our weather pages